ENGINEERING TRACK TESTING
Weather & Rail Temperature Monitoring
Weather station PRV
Providence MW Base (Providence RI)
Measurement History
![]() ENGINEERING TRACK TESTING Weather station PRV Providence MW Base (Providence RI) Measurement History ![]() |
Conditions for past 24 hours (since 09/01/2026 01:29 AM)
| Time | Track 1 N rail | Track 1 S rail | Track 2 N rail | Track 2 S rail | Outside Air Temperature |
Solar Radiation |
Max. Wind | Humidity | Air Pressure | Rain | |
| Speed | Dir | ||||||||||
| 09/02/2026 01:15 AM | 61 °F | 60 °F | 61 °F | 60 °F | 61.2 °F | 0 watt/m2 | 6 mph | SSE | 0 % | 30.092 in Hg | 0 in |
| 09/02/2026 01:00 AM | 60 °F | 60 °F | 61 °F | 60 °F | 61.3 °F | 0 watt/m2 | 5 mph | SSE | 0 % | 30.095 in Hg | 0 in |
| 09/02/2026 12:45 AM | 60 °F | 60 °F | 61 °F | 60 °F | 61.3 °F | 0 watt/m2 | 4 mph | SSE | 0 % | 30.095 in Hg | 0 in |
| 09/02/2026 12:30 AM | 60 °F | 60 °F | 61 °F | 60 °F | 61.5 °F | 0 watt/m2 | 2 mph | SSE | 0 % | 30.098 in Hg | 0 in |
| 09/02/2026 12:15 AM | 61 °F | 61 °F | 61 °F | 61 °F | 61.6 °F | 0 watt/m2 | 2 mph | SSE | 0 % | 30.091 in Hg | 0 in |
| 09/02/2026 12:00 AM | 61 °F | 61 °F | 61 °F | 61 °F | 61.8 °F | 0 watt/m2 | 2 mph | SSE | 0 % | 30.078 in Hg | 0 in |
| 09/01/2026 11:45 PM | 61 °F | 61 °F | 61 °F | 61 °F | 61.7 °F | 0 watt/m2 | 2 mph | SSE | 0 % | 30.077 in Hg | 0 in |
| 09/01/2026 11:30 PM | 61 °F | 61 °F | 61 °F | 61 °F | 61.8 °F | 0 watt/m2 | 4 mph | SSE | 0 % | 30.079 in Hg | 0 in |
| 09/01/2026 11:15 PM | 61 °F | 61 °F | 61 °F | 61 °F | 61.8 °F | 0 watt/m2 | 4 mph | SSE | 0 % | 30.073 in Hg | 0.01 in |
| 09/01/2026 11:00 PM | 61 °F | 61 °F | 61 °F | 61 °F | 61.7 °F | 0 watt/m2 | 5 mph | SSE | 0 % | 30.076 in Hg | 0 in |
| 09/01/2026 10:45 PM | 61 °F | 61 °F | 61 °F | 61 °F | 61.7 °F | 0 watt/m2 | 5 mph | SSE | 0 % | 30.072 in Hg | 0 in |
| 09/01/2026 10:30 PM | 61 °F | 61 °F | 61 °F | 61 °F | 61.6 °F | 0 watt/m2 | 5 mph | SSE | 0 % | 30.074 in Hg | 0 in |
| 09/01/2026 10:15 PM | 61 °F | 61 °F | 61 °F | 61 °F | 61.5 °F | 0 watt/m2 | 5 mph | SSE | 0 % | 30.07 in Hg | 0.01 in |
| 09/01/2026 10:00 PM | 61.6 °F | 0 watt/m2 | 5 mph | SSE | 0 % | 30.07 in Hg | 0 in | ||||
| 09/01/2026 09:45 PM | 62 °F | 61 °F | 62 °F | 61 °F | 61.6 °F | 0 watt/m2 | 5 mph | S | 0 % | 30.072 in Hg | 0 in |
| 09/01/2026 09:30 PM | 61 °F | 61 °F | 61 °F | 61 °F | 61.6 °F | 0 watt/m2 | 4 mph | S | 0 % | 30.065 in Hg | 0 in |
| 09/01/2026 09:15 PM | 62 °F | 61 °F | 62 °F | 61 °F | 61.6 °F | 0 watt/m2 | 4 mph | S | 0 % | 30.066 in Hg | 0 in |
| 09/01/2026 09:00 PM | 62 °F | 62 °F | 62 °F | 61 °F | 61.7 °F | 0 watt/m2 | 4 mph | S | 0 % | 30.065 in Hg | 0.01 in |
| 09/01/2026 08:45 PM | 62 °F | 62 °F | 62 °F | 61 °F | 61.9 °F | 0 watt/m2 | 3 mph | S | 0 % | 30.06 in Hg | 0 in |
| 09/01/2026 08:30 PM | 62 °F | 62 °F | 62 °F | 62 °F | 61.7 °F | 0 watt/m2 | 4 mph | S | 0 % | 30.062 in Hg | 0 in |
| 09/01/2026 08:15 PM | 62 °F | 62 °F | 62 °F | 62 °F | 61.6 °F | 0 watt/m2 | 4 mph | S | 0 % | 30.058 in Hg | 0.01 in |
| 09/01/2026 08:00 PM | 62 °F | 62 °F | 62 °F | 62 °F | 61.5 °F | 0 watt/m2 | 3 mph | S | 0 % | 30.062 in Hg | 0 in |
| 09/01/2026 07:45 PM | 62 °F | 62 °F | 62 °F | 61 °F | 61.3 °F | 0 watt/m2 | 3 mph | S | 0 % | 30.055 in Hg | 0 in |
| 09/01/2026 07:30 PM | 62 °F | 62 °F | 62 °F | 61 °F | 61.3 °F | 0 watt/m2 | 4 mph | S | 0 % | 30.05 in Hg | 0.01 in |
| 09/01/2026 07:15 PM | 62 °F | 62 °F | 62 °F | 61 °F | 61 °F | 1 watt/m2 | 2 mph | S | 0 % | 30.056 in Hg | 0 in |
| 09/01/2026 07:00 PM | 62 °F | 62 °F | 62 °F | 62 °F | 60.9 °F | 9 watt/m2 | 3 mph | S | 0 % | 30.057 in Hg | 0.01 in |
| 09/01/2026 06:45 PM | 62 °F | 62 °F | 63 °F | 62 °F | 60.7 °F | 17 watt/m2 | 4 mph | S | 0 % | 30.053 in Hg | 0 in |
| 09/01/2026 06:30 PM | 62 °F | 62 °F | 63 °F | 62 °F | 60.8 °F | 20 watt/m2 | 3 mph | S | 0 % | 30.051 in Hg | 0 in |
| 09/01/2026 06:15 PM | 62 °F | 62 °F | 63 °F | 62 °F | 60.5 °F | 29 watt/m2 | 4 mph | S | 0 % | 30.054 in Hg | 0.01 in |
| 09/01/2026 06:00 PM | 63 °F | 62 °F | 63 °F | 62 °F | 60.4 °F | 32 watt/m2 | 5 mph | S | 0 % | 30.057 in Hg | 0.01 in |
| 09/01/2026 05:45 PM | 63 °F | 63 °F | 63 °F | 62 °F | 60.5 °F | 42 watt/m2 | 7 mph | SSW | 0 % | 30.057 in Hg | 0 in |
| 09/01/2026 05:30 PM | 63 °F | 63 °F | 63 °F | 62 °F | 60.6 °F | 55 watt/m2 | 7 mph | SSE | 0 % | 30.052 in Hg | 0 in |
| 09/01/2026 05:15 PM | 63 °F | 63 °F | 64 °F | 63 °F | 60.5 °F | 65 watt/m2 | 6 mph | SE | 0 % | 30.051 in Hg | 0.01 in |
| 09/01/2026 05:00 PM | 63 °F | 63 °F | 64 °F | 63 °F | 60.2 °F | 74 watt/m2 | 7 mph | SE | 0 % | 30.053 in Hg | 0.01 in |
| 09/01/2026 04:45 PM | 64 °F | 63 °F | 64 °F | 63 °F | 60.3 °F | 68 watt/m2 | 9 mph | SSE | 0 % | 30.049 in Hg | 0.01 in |
| 09/01/2026 04:30 PM | 64 °F | 64 °F | 64 °F | 63 °F | 60.4 °F | 72 watt/m2 | 11 mph | SE | 0 % | 30.051 in Hg | 0 in |
| 09/01/2026 04:15 PM | 65 °F | 64 °F | 65 °F | 64 °F | 61.5 °F | 97 watt/m2 | 10 mph | SSE | 0 % | 30.044 in Hg | 0.01 in |
| 09/01/2026 04:00 PM | 65 °F | 65 °F | 65 °F | 64 °F | 62.1 °F | 69 watt/m2 | 8 mph | SSE | 0 % | 30.042 in Hg | 0.01 in |
| 09/01/2026 03:45 PM | 65 °F | 65 °F | 65 °F | 64 °F | 62.3 °F | 53 watt/m2 | 8 mph | SSE | 0 % | 30.037 in Hg | 0.01 in |
| 09/01/2026 03:30 PM | 65 °F | 65 °F | 65 °F | 64 °F | 62.5 °F | 63 watt/m2 | 8 mph | SE | 0 % | 30.038 in Hg | 0 in |
| 09/01/2026 03:15 PM | 65 °F | 65 °F | 65 °F | 64 °F | 62.5 °F | 71 watt/m2 | 9 mph | SSE | 0 % | 30.031 in Hg | 0.01 in |
| 09/01/2026 03:00 PM | 65 °F | 65 °F | 65 °F | 64 °F | 62.6 °F | 59 watt/m2 | 7 mph | SSE | 0 % | 30.026 in Hg | 0.01 in |
| 09/01/2026 02:45 PM | 65 °F | 65 °F | 65 °F | 64 °F | 62.5 °F | 58 watt/m2 | 9 mph | SE | 0 % | 30.029 in Hg | 0.02 in |
| 09/01/2026 02:30 PM | 65 °F | 65 °F | 65 °F | 64 °F | 62.6 °F | 81 watt/m2 | 8 mph | SSE | 0 % | 30.028 in Hg | 0.01 in |
| 09/01/2026 02:15 PM | 65 °F | 64 °F | 65 °F | 64 °F | 62.5 °F | 158 watt/m2 | 9 mph | S | 0 % | 30.026 in Hg | 0.01 in |
| 09/01/2026 02:00 PM | 64 °F | 64 °F | 64 °F | 63 °F | 62.2 °F | 45 watt/m2 | 8 mph | SSW | 0 % | 30.017 in Hg | 0.02 in |
| 09/01/2026 01:45 PM | 64 °F | 64 °F | 65 °F | 64 °F | 62.2 °F | 25 watt/m2 | 6 mph | SSE | 0 % | 30.023 in Hg | 0.01 in |
| 09/01/2026 01:30 PM | 65 °F | 65 °F | 65 °F | 64 °F | 62.2 °F | 30 watt/m2 | 13 mph | S | 0 % | 30.038 in Hg | 0.01 in |
| 09/01/2026 01:15 PM | 66 °F | 65 °F | 66 °F | 65 °F | 62.3 °F | 40 watt/m2 | 8 mph | SW | 0 % | 30.028 in Hg | 0.01 in |
| 09/01/2026 01:00 PM | 66 °F | 66 °F | 67 °F | 66 °F | 62.3 °F | 47 watt/m2 | 10 mph | WSW | 0 % | 30.03 in Hg | 0.01 in |
| 09/01/2026 12:45 PM | 68 °F | 67 °F | 68 °F | 67 °F | 62.8 °F | 97 watt/m2 | 10 mph | WSW | 0 % | 30.029 in Hg | 0.01 in |
| 09/01/2026 12:30 PM | 69 °F | 68 °F | 69 °F | 68 °F | 63.1 °F | 137 watt/m2 | 10 mph | SW | 0 % | 30.028 in Hg | 0.01 in |
| 09/01/2026 12:15 PM | 70 °F | 69 °F | 70 °F | 69 °F | 64.3 °F | 186 watt/m2 | 13 mph | WSW | 0 % | 30.025 in Hg | 0.01 in |
| 09/01/2026 12:00 PM | 70 °F | 69 °F | 70 °F | 69 °F | 64.9 °F | 174 watt/m2 | 11 mph | S | 0 % | 30.025 in Hg | 0.01 in |
| 09/01/2026 11:45 AM | 70 °F | 70 °F | 70 °F | 69 °F | 65.1 °F | 251 watt/m2 | 12 mph | SSW | 0 % | 30.031 in Hg | 0.01 in |
| 09/01/2026 11:30 AM | 70 °F | 69 °F | 70 °F | 69 °F | 65.7 °F | 277 watt/m2 | 8 mph | SW | 0 % | 30.033 in Hg | 0.02 in |
| 09/01/2026 11:15 AM | 69 °F | 69 °F | 69 °F | 68 °F | 65 °F | 190 watt/m2 | 8 mph | SSW | 0 % | 30.034 in Hg | 0.03 in |
| 09/01/2026 11:00 AM | 69 °F | 69 °F | 69 °F | 68 °F | 65.5 °F | 167 watt/m2 | 12 mph | SW | 0 % | 30.035 in Hg | 0.03 in |
| 09/01/2026 10:45 AM | 69 °F | 69 °F | 70 °F | 69 °F | 67.3 °F | 145 watt/m2 | 9 mph | ESE | 0 % | 30.033 in Hg | 0.05 in |
| 09/01/2026 10:30 AM | 69 °F | 69 °F | 69 °F | 68 °F | 68 °F | 83 watt/m2 | 7 mph | SE | 0 % | 30.026 in Hg | 0.04 in |
| 09/01/2026 10:15 AM | 69 °F | 69 °F | 69 °F | 69 °F | 68 °F | 42 watt/m2 | 7 mph | SE | 0 % | 30.036 in Hg | 0.05 in |
| 09/01/2026 10:00 AM | 70 °F | 69 °F | 70 °F | 69 °F | 67.9 °F | 38 watt/m2 | 5 mph | ESE | 0 % | 30.045 in Hg | 0.03 in |
| 09/01/2026 09:45 AM | 70 °F | 70 °F | 70 °F | 69 °F | 68.2 °F | 49 watt/m2 | 7 mph | SE | 0 % | 30.036 in Hg | 0.01 in |
| 09/01/2026 09:30 AM | 70 °F | 70 °F | 70 °F | 70 °F | 68.6 °F | 76 watt/m2 | 7 mph | SE | 0 % | 30.026 in Hg | 0 in |
| 09/01/2026 09:15 AM | 71 °F | 70 °F | 70 °F | 70 °F | 68.7 °F | 83 watt/m2 | 6 mph | SE | 0 % | 30.029 in Hg | 0.01 in |
| 09/01/2026 09:00 AM | 71 °F | 70 °F | 70 °F | 70 °F | 69.2 °F | 88 watt/m2 | 3 mph | SW | 0 % | 30.027 in Hg | 0.01 in |
| 09/01/2026 08:45 AM | 71 °F | 70 °F | 70 °F | 70 °F | 69 °F | 78 watt/m2 | 3 mph | SW | 0 % | 30.024 in Hg | 0.01 in |
| 09/01/2026 08:30 AM | 71 °F | 70 °F | 70 °F | 70 °F | 68.6 °F | 26 watt/m2 | 3 mph | SW | 0 % | 30.026 in Hg | 0 in |
| 09/01/2026 08:15 AM | 71 °F | 70 °F | 70 °F | 70 °F | 68.6 °F | 26 watt/m2 | 2 mph | SW | 0 % | 30.027 in Hg | 0 in |
| 09/01/2026 08:00 AM | 70 °F | 70 °F | 70 °F | 70 °F | 68.6 °F | 29 watt/m2 | 3 mph | SW | 0 % | 30.024 in Hg | 0 in |
| 09/01/2026 07:45 AM | 70 °F | 70 °F | 70 °F | 70 °F | 68.6 °F | 34 watt/m2 | 3 mph | SW | 0 % | 30.021 in Hg | 0 in |
| 09/01/2026 07:30 AM | 70 °F | 70 °F | 70 °F | 69 °F | 68.6 °F | 31 watt/m2 | 3 mph | SW | 0 % | 30.021 in Hg | 0 in |
| 09/01/2026 07:15 AM | 70 °F | 70 °F | 70 °F | 69 °F | 68.5 °F | 32 watt/m2 | 4 mph | SW | 0 % | 30.018 in Hg | 0 in |
| 09/01/2026 07:00 AM | 70 °F | 69 °F | 69 °F | 69 °F | 68.5 °F | 20 watt/m2 | 4 mph | WSW | 0 % | 30.014 in Hg | 0 in |
| 09/01/2026 06:45 AM | 70 °F | 69 °F | 69 °F | 69 °F | 68.5 °F | 5 watt/m2 | 4 mph | W | 0 % | 30.015 in Hg | 0 in |
| 09/01/2026 06:30 AM | 70 °F | 69 °F | 69 °F | 68 °F | 68.6 °F | 0 watt/m2 | 2 mph | W | 0 % | 30.013 in Hg | 0 in |
| 09/01/2026 06:15 AM | 70 °F | 69 °F | 69 °F | 69 °F | 68.5 °F | 0 watt/m2 | 3 mph | W | 0 % | 30.012 in Hg | 0 in |
| 09/01/2026 06:00 AM | 70 °F | 69 °F | 69 °F | 69 °F | 68.5 °F | 0 watt/m2 | 3 mph | W | 0 % | 30.006 in Hg | 0 in |
| 09/01/2026 05:45 AM | 69 °F | 69 °F | 69 °F | 69 °F | 68.6 °F | 0 watt/m2 | 3 mph | W | 0 % | 30.009 in Hg | 0 in |
| 09/01/2026 05:30 AM | 69 °F | 69 °F | 69 °F | 68 °F | 68.6 °F | 0 watt/m2 | 2 mph | W | 0 % | 30.009 in Hg | 0 in |
| 09/01/2026 05:15 AM | 69 °F | 69 °F | 69 °F | 68 °F | 68.6 °F | 0 watt/m2 | 2 mph | W | 0 % | 30.009 in Hg | 0 in |
| 09/01/2026 05:00 AM | 69 °F | 69 °F | 69 °F | 68 °F | 68.6 °F | 0 watt/m2 | 2 mph | W | 0 % | 30.006 in Hg | 0 in |
| 09/01/2026 04:45 AM | 69 °F | 69 °F | 69 °F | 69 °F | 68.6 °F | 0 watt/m2 | 3 mph | W | 1 % | 30.009 in Hg | 0 in |
| 09/01/2026 04:30 AM | 69 °F | 69 °F | 69 °F | 69 °F | 68.6 °F | 0 watt/m2 | 2 mph | W | 6 % | 30.023 in Hg | 0 in |
| 09/01/2026 04:15 AM | 69 °F | 69 °F | 69 °F | 69 °F | 68.8 °F | 0 watt/m2 | 2 mph | W | 8 % | 30.033 in Hg | 0 in |
| 09/01/2026 04:00 AM | 69 °F | 69 °F | 70 °F | 69 °F | 68.9 °F | 0 watt/m2 | 5 mph | W | 10 % | 30.036 in Hg | 0 in |
| 09/01/2026 03:45 AM | 69 °F | 69 °F | 70 °F | 69 °F | 68.8 °F | 0 watt/m2 | 6 mph | W | 16 % | 30.034 in Hg | 0 in |
| 09/01/2026 03:30 AM | 69 °F | 69 °F | 70 °F | 69 °F | 68.7 °F | 0 watt/m2 | 2 mph | W | 16 % | 30.032 in Hg | 0 in |
| 09/01/2026 03:15 AM | 69 °F | 69 °F | 70 °F | 69 °F | 68.7 °F | 0 watt/m2 | 4 mph | W | 16 % | 30.027 in Hg | 0 in |
| 09/01/2026 03:00 AM | 70 °F | 69 °F | 70 °F | 69 °F | 68.6 °F | 0 watt/m2 | 5 mph | W | 16 % | 30.03 in Hg | 0 in |
| 09/01/2026 02:45 AM | 70 °F | 69 °F | 70 °F | 69 °F | 68.5 °F | 0 watt/m2 | 5 mph | W | 15 % | 30.033 in Hg | 0 in |
| 09/01/2026 02:30 AM | 70 °F | 69 °F | 70 °F | 69 °F | 68.5 °F | 0 watt/m2 | 5 mph | W | 14 % | 30.042 in Hg | 0 in |
| 09/01/2026 02:15 AM | 70 °F | 69 °F | 70 °F | 69 °F | 68.5 °F | 0 watt/m2 | 5 mph | W | 14 % | 30.042 in Hg | 0 in |
| 09/01/2026 02:00 AM | 70 °F | 69 °F | 70 °F | 70 °F | 68.4 °F | 0 watt/m2 | 6 mph | WSW | 13 % | 30.042 in Hg | 0 in |
| 09/01/2026 01:45 AM | 70 °F | 70 °F | 70 °F | 70 °F | 68.4 °F | 0 watt/m2 | 6 mph | W | 10 % | 30.042 in Hg | 0 in |
| 09/01/2026 01:30 AM | 70 °F | 70 °F | 70 °F | 70 °F | 68.4 °F | 0 watt/m2 | 5 mph | W | 9 % | 30.047 in Hg | 0 in |